Вернуться в каталог

COSMOS 2251 DEB

АктивенLEO
NORAD 34626·DEBRIS·🇷🇺 Russia

Запущен Jun 16, 1993 с Plesetsk Cosmodrome

Loading…

Ближайшие Пролёты (ближайшие 24 часа)

TLE

СвежийSource: Space-Track

Эпоха: Sep 14, 2026, 03:23 UTC

1 34626U 93036WX  26257.14132742  .00002774  00000-0  41640-3 0  9996
2 34626  74.0462 147.1026 0028140 170.5776 339.9210 14.74807601932015

Отслеживайте COSMOS 2251 DEB в реальном времени с AllMySat

Download on the App Store